Regional Weather Roundup
Issued by NWS Albany, NY

Home | Current Version | Previous Version | Graphics & Text | Print | Product List | Glossary On
Versions: 1 2 3 4 5 6 7 8 9 10 11 12 13 14 15 16 17 18 19 20 21 22 23 24 25 26 27 28 29 30 31 32 33 34 35 36 37 38 39 40 41 42 43 44 45 46 47 48 49 50
000
ASUS41 KALY 231510
RWRALY

NEW YORK STATE HOURLY WEATHER ROUNDUP
NATIONAL WEATHER SERVICE ALBANY NY
1100 AM EDT WED JUL 23 2014

NOTE: "FAIR" INDICATES FEW OR NO CLOUDS BELOW 12,000 FEET WITH NO
SIGNIFICANT WEATHER AND/OR NO OBSTRUCTIONS TO VISIBILITY.

NYZ032-033-038>043-046>054-057>066-NYZ062>081-231600-
EAST


CITY           SKY/WX    TMP DP  RH WIND       PRES   REMARKS
ALBANY         MOSUNNY   83  71  67 S10       29.86F
GLENS FALLS    SUNNY     82  71  69 S12       29.83F
POUGHKEEPSIE   SUNNY     83  71  67 S6        29.90F
NEWBURGH       SUNNY     81  73  78 W7        29.94F
MONTGOMERY     SUNNY     83  72  69 S8        29.91F
WHITE PLAINS   SUNNY     81  69  67 VRB5      29.93F
ISLIP          MOSUNNY   80  69  69 S10       29.94F
NEW YORK CITY  MOSUNNY   83  68  60 SW8       29.93F
CENTRAL PARK   SUNNY     82  69  64 VRB7      29.96F
$$

NYZ005>009-017-018-044>046-055-056-231600-
CENTRAL


CITY           SKY/WX    TMP DP  RH WIND       PRES   REMARKS
FULTON         PTSUNNY   82  70  66 SW9       29.84F
SYRACUSE       CLOUDY    86  69  56 SW14G23   29.84S HX  90
ROME           PTSUNNY   83  70  64 W15       29.85F
ELMIRA         PTSUNNY   84  70  62 SW9       29.89F
BINGHAMTON     MOSUNNY   80  70  71 SW8       29.94F
MONTICELLO     PTSUNNY   81  72  74 W5        29.96F
$$

NYZ026>034-041>043-231600-
NORTH


CITY           SKY/WX    TMP DP  RH WIND       PRES   REMARKS
WATERTOWN      CLOUDY    77  67  71 SW12      29.83R
FORT DRUM      NOT AVBL
MASSENA        CLOUDY    73  72  96 SW7       29.79F FOG
SARANAC LAKE   CLOUDY    74  67  78 SW10      29.84F HAZE
PLATTSBURGH    CLOUDY    79  72  79 SE8       29.76F
$$

NYZ001>004-010>016-019>021-231600-
WEST


CITY           SKY/WX    TMP DP  RH WIND       PRES   REMARKS
NIAGARA FALLS  CLOUDY    67  64  90 N9        29.91R
BUFFALO        RAIN      73  70  90 W9        29.89R FOG
DUNKIRK          N/A     74  69  85 SW13      29.91S
JAMESTOWN      CLOUDY    73  66  78 W13       29.97S
WELLSVILLE     PTSUNNY   79  67  66 W8        29.98S
ROCHESTER      CLOUDY    79  70  74 W10       29.86S
PENN YAN       PTSUNNY   81  70  69 SW12      29.89F
$$

             KEY
       WCI = WIND CHILL INDEX
       VSB = VISIBILITY
       HX  = HEAT INDEX
$$



USA.gov is the U.S. government's official web portal to all federal, state and local government web resources and services.